Tracking 19644 objects as of 25-Apr-2019
HD Live streaming from Space Station
objects crossing your sky now

FLOCK 4A 14

Track FLOCK 4A 14 now!
10-day predictions
FLOCK 4A 14 is classified as:


NORAD ID: 44101
Int'l Code: 2019-018Z
Perigee: 498.4 km
Apogee: 514.4 km
Inclination: 97.5 °
Period: 94.6 minutes
Semi major axis: 6877 km
RCS: Unknown
Launch date: April 1, 2019
Source: United States (US)
Launch site: SRIHARIKOTA (SRI)
aabbcc
Your satellite tracking list
Your tracking list is empty




NASA's NSSDC Master Catalog

Two Line Element Set (TLE):
1 44101U 19018Z   19115.13546250  .00000595  00000-0  28966-4 0  9996
2 44101  97.4614 175.5109 0011627 206.6961 153.3678 15.22174780  3629
Source of the keplerian elements: AFSPC